Location: Petruro
(41.0333°N, 14.7833°E)
Time: 09:44:24
(UTC+00:00)

ADEOS Rocket - Pass Details

Date: 20 June 2021
Orbit: 858 x 1307 km, 98.7° (Epoch: 26 July)

Event Time Altitude Azimuth Distance (km) Brightness Sun altitude
Exits shadow 00:45:31 - 148° (SSE) 3,371 5.5 -21.2°
Reaches altitude 10° 00:46:00 10° 147° (SSE) 3,199 5.4 -21.2°
Maximum altitude 00:53:09 58° 71° (ENE) 1,340 3.9 -20.6°
Drops below altitude 10° 00:59:41 10° 355° (N) 2,923 6.3 -20.0°
Sets 01:02:08 0° 351° (N) 3,820 6.9 -19.8°
